| time (UTC) | temp C | wind direction | speed KPH | gust KPH | rain 1hr cm | rain 24hr cm | rain mn cm | humidity % | barometer mb |
| 20260901131347 | 25 | 231 | 8.0 | 19.3 | 0.00 | 0.00 | 0.00 | 59 | 1019.4 |
| 20260901130541 | 25 | 235 | 6.4 | 14.5 | 0.00 | 0.00 | 0.00 | 60 | 1019.6 |
| 20260901124347 | 25 | 279 | 8.0 | 19.3 | 0.00 | 0.00 | 0.00 | 60 | 1019.8 |
| 20260901122847 | 24 | 234 | 8.0 | 16.1 | 0.00 | 0.00 | 0.00 | 63 | 1019.7 |
| 20260901122735 | 24 | 211 | 6.4 | 19.3 | 0.00 | 0.00 | 0.00 | 65 | 1019.8 |
| 20260901115844 | 23 | 281 | 8.0 | 17.7 | 0.00 | 0.00 | 0.00 | 66 | 1020.1 |
| 20260901115733 | 23 | 251 | 8.0 | 16.1 | 0.00 | 0.00 | 0.00 | 69 | 1020.2 |
| 20260901112843 | 23 | 242 | 6.4 | 14.5 | 0.00 | 0.00 | 0.00 | 71 | 1020.1 |
| 20260901111342 | 22 | 223 | 8.0 | 14.5 | 0.00 | 0.00 | 0.00 | 72 | 1020.2 |
| 20260901105843 | 22 | 244 | 11.3 | 17.7 | 0.00 | 0.00 | 0.00 | 74 | 1020.3 |
| 20260901104343 | 21 | 243 | 9.7 | 16.1 | 0.00 | 0.00 | 0.00 | 75 | 1020.3 |
| 20260901102843 | 21 | 227 | 9.7 | 16.1 | 0.00 | 0.00 | 0.00 | 76 | 1020.4 |
| 20260901101342 | 21 | 249 | 9.7 | 16.1 | 0.00 | 0.00 | 0.00 | 76 | 1020.4 |
| 20260901100538 | 21 | 235 | 4.8 | 11.3 | 0.00 | 0.00 | 0.00 | 77 | 1020.4 |
| 20260901095740 | 20 | 248 | 6.4 | 11.3 | 0.00 | 0.00 | 0.00 | 79 | 1020.4 |
| 20260901092842 | 19 | 5 | 1.6 | 4.8 | 0.00 | 0.00 | 0.00 | 81 | 1020.4 |
| 20260901091343 | 18 | 63 | 3.2 | 8.0 | 0.00 | 0.00 | 0.00 | 84 | 1020.4 |
| 20260901085840 | 17 | 246 | 1.6 | 8.0 | 0.00 | 0.00 | 0.00 | 84 | 1020.4 |
| 20260901084339 | 17 | 246 | 6.4 | 12.9 | 0.00 | 0.00 | 0.00 | 84 | 1020.5 |
| 20260901083539 | 17 | 230 | 8.0 | 12.9 | 0.00 | 0.00 | 0.00 | 84 | 1020.3 |
| 20260901082730 | 18 | 234 | 1.6 | 8.0 | 0.00 | 0.00 | 0.00 | 84 | 1020.1 |
| 20260901075837 | 17 | 126 | 4.8 | 8.0 | 0.00 | 0.00 | 0.00 | 83 | 1019.9 |
| 20260901074337 | 16 | 127 | 3.2 | 6.4 | 0.00 | 0.00 | 0.00 | 83 | 1019.8 |
| 20260901072837 | 16 | 127 | 3.2 | 6.4 | 0.00 | 0.00 | 0.00 | 82 | 1019.8 |
| 20260901071336 | 16 | 221 | 1.6 | 4.8 | 0.00 | 0.00 | 0.00 | 80 | 1019.8 |
| 20260901065834 | 16 | 221 | 0.0 | 4.8 | 0.00 | 0.00 | 0.00 | 80 | 1019.6 |
| 20260901064333 | 16 | 221 | 1.6 | 6.4 | 0.00 | 0.00 | 0.00 | 82 | 1019.7 |
| 20260901062832 | 16 | 110 | 6.4 | 16.1 | 0.00 | 0.00 | 0.00 | 80 | 1019.4 |
| 20260901061332 | 16 | 120 | 9.7 | 16.1 | 0.00 | 0.03 | 0.00 | 79 | 1019.4 |
| 20260901060547 | 16 | 136 | 4.8 | 6.4 | 0.00 | 0.03 | 0.00 | 76 | 1019.3 |
| 20260901054332 | 15 | 140 | 1.6 | 4.8 | 0.00 | 0.03 | 0.00 | 74 | 1019.3 |
| 20260901053529 | 15 | 140 | 3.2 | 4.8 | 0.00 | 0.03 | 0.00 | 75 | 1019.3 |
| 20260901052021 | 15 | 140 | 1.6 | 3.2 | 0.00 | 0.03 | 0.00 | 78 | 1019.2 |
| 20260901045830 | 15 | 140 | 0.0 | 0.0 | 0.00 | 0.03 | 0.00 | 79 | 1019.1 |
| 20260901044329 | 15 | 140 | 0.0 | 1.6 | 0.00 | 0.03 | 0.00 | 78 | 1019.2 |
| 20260901042826 | 15 | 140 | 1.6 | 3.2 | 0.00 | 0.03 | 0.00 | 79 | 1019.0 |
| 20260901041326 | 15 | 140 | 0.0 | 3.2 | 0.00 | 0.03 | 0.00 | 80 | 1019.1 |
| 20260901035823 | 15 | 140 | 0.0 | 3.2 | 0.00 | 0.03 | 0.00 | 81 | 1019.1 |
| 20260901034322 | 16 | 140 | 0.0 | 3.2 | 0.00 | 0.03 | 0.00 | 81 | 1019.0 |
| 20260901032820 | 16 | 140 | 1.6 | 4.8 | 0.00 | 0.03 | 0.00 | 81 | 1019.0 |
| 20260901031319 | 16 | 140 | 0.0 | 3.2 | 0.00 | 0.03 | 0.00 | 83 | 1019.0 |
| 20260901025818 | 16 | 140 | 0.0 | 3.2 | 0.00 | 0.03 | 0.00 | 83 | 1019.2 |
| 20260901024324 | 16 | 140 | 0.0 | 6.4 | 0.00 | 0.03 | 0.00 | 82 | 1019.4 |
| 20260901022816 | 16 | 247 | 3.2 | 6.4 | 0.00 | 0.03 | 0.00 | 82 | 1019.4 |
| 20260901022005 | 16 | 247 | 3.2 | 8.0 | 0.00 | 0.03 | 0.00 | 83 | 1019.4 |
| 20260901015812 | 16 | 82 | 3.2 | 6.4 | 0.00 | 0.03 | 0.00 | 83 | 1019.3 |
| 20260901015005 | 16 | 82 | 8.0 | 12.9 | 0.00 | 0.03 | 0.00 | 83 | 1019.4 |
| 20260901012810 | 16 | 85 | 1.6 | 9.7 | 0.00 | 0.03 | 0.00 | 84 | 1019.5 |
| 20260901011309 | 16 | 196 | 4.8 | 11.3 | 0.00 | 0.03 | 0.00 | 84 | 1019.5 |
| 20260901010457 | 16 | 89 | 4.8 | 8.0 | 0.00 | 0.03 | 0.00 | 83 | 1019.5 |
| 20260901004309 | 16 | 82 | 3.2 | 8.0 | 0.00 | 0.03 | 0.00 | 83 | 1019.7 |
| 20260901002810 | 16 | 82 | 4.8 | 12.9 | 0.00 | 0.03 | 0.00 | 84 | 1019.9 |
| 20260901001312 | 16 | 82 | 6.4 | 11.3 | 0.00 | 0.03 | 0.00 | 84 | 1019.8 |
| 20260831235809 | 17 | 123 | 8.0 | 12.9 | 0.00 | 0.03 | 0.00 | 84 | 1020.0 |
| 20260831234309 | 17 | 127 | 8.0 | 12.9 | 0.00 | 0.03 | 0.00 | 84 | 1020.0 |
| 20260831232810 | 17 | 228 | 1.6 | 6.4 | 0.00 | 0.03 | 0.00 | 84 | 1020.2 |
| 20260831231308 | 17 | 229 | 0.0 | 0.0 | 0.00 | 0.03 | 0.00 | 84 | 1020.3 |
| 20260831225808 | 17 | 229 | 0.0 | 0.0 | 0.00 | 0.03 | 0.03 | 83 | 1020.3 |
| 20260831224308 | 17 | 228 | 0.0 | 0.0 | 0.00 | 0.03 | 0.03 | 83 | 1020.4 |
| 20260831223457 | 17 | 229 | 0.0 | 0.0 | 0.00 | 0.03 | 0.03 | 83 | 1020.3 |
| 20260831221307 | 17 | 228 | 0.0 | 1.6 | 0.00 | 0.03 | 0.03 | 83 | 1020.3 |
| 20260831221202 | 18 | 229 | 3.2 | 4.8 | 0.00 | 0.03 | 0.03 | 82 | 1020.4 |
| 20260831214308 | 18 | 228 | 1.6 | 4.8 | 0.00 | 0.03 | 0.03 | 81 | 1020.4 |
| 20260831212808 | 18 | 229 | 4.8 | 6.4 | 0.00 | 0.03 | 0.03 | 80 | 1020.5 |
| 20260831211308 | 18 | 228 | 1.6 | 3.2 | 0.00 | 0.03 | 0.03 | 80 | 1020.5 |
| 20260831205808 | 18 | 229 | 1.6 | 3.2 | 0.00 | 0.03 | 0.03 | 80 | 1020.4 |
| 20260831205008 | 18 | 229 | 4.8 | 8.0 | 0.00 | 0.03 | 0.03 | 79 | 1020.5 |
| 20260831202803 | 19 | 229 | 4.8 | 9.7 | 0.00 | 0.03 | 0.03 | 79 | 1020.3 |
| 20260831201300 | 19 | 228 | 8.0 | 11.3 | 0.00 | 0.03 | 0.03 | 78 | 1020.2 |
| 20260831195758 | 20 | 227 | 8.0 | 12.9 | 0.00 | 0.03 | 0.03 | 77 | 1020.1 |
| 20260831194257 | 20 | 246 | 8.0 | 16.1 | 0.00 | 0.03 | 0.03 | 75 | 1020.0 |
| 20260831193447 | 21 | 244 | 8.0 | 14.5 | 0.00 | 0.03 | 0.03 | 73 | 1019.9 |
| 20260831191253 | 21 | 248 | 6.4 | 16.1 | 0.00 | 0.03 | 0.03 | 70 | 1019.8 |
| 20260831185753 | 22 | 244 | 9.7 | 19.3 | 0.00 | 0.03 | 0.03 | 68 | 1019.7 |
| 20260831184249 | 23 | 275 | 6.4 | 14.5 | 0.00 | 0.03 | 0.03 | 65 | 1019.5 |
| 20260831183452 | 23 | 287 | 8.0 | 16.1 | 0.00 | 0.03 | 0.03 | 63 | 1019.5 |
| 20260831181247 | 24 | 246 | 9.7 | 19.3 | 0.00 | 0.03 | 0.03 | 62 | 1019.5 |
| 20260831175748 | 24 | 246 | 8.0 | 17.7 | 0.00 | 0.03 | 0.03 | 60 | 1019.4 |
| 20260831174247 | 25 | 286 | 11.3 | 17.7 | 0.00 | 0.03 | 0.03 | 59 | 1019.5 |
| 20260831172747 | 25 | 273 | 9.7 | 17.7 | 0.00 | 0.03 | 0.03 | 57 | 1019.4 |
| 20260831171241 | 25 | 273 | 14.5 | 25.7 | 0.00 | 0.03 | 0.03 | 57 | 1019.5 |
| 20260831165741 | 25 | 257 | 12.9 | 24.1 | 0.00 | 0.03 | 0.03 | 57 | 1019.5 |
| 20260831164241 | 25 | 236 | 16.1 | 24.1 | 0.00 | 0.03 | 0.03 | 54 | 1019.5 |
| 20260831163435 | 26 | 232 | 14.5 | 24.1 | 0.00 | 0.03 | 0.03 | 52 | 1019.6 |
| 20260831161241 | 26 | 246 | 9.7 | 25.7 | 0.00 | 0.03 | 0.03 | 48 | 1019.6 |
| 20260831155744 | 26 | 261 | 4.8 | 14.5 | 0.00 | 0.03 | 0.03 | 41 | 1019.8 |
| 20260831154240 | 26 | 273 | 4.8 | 16.1 | 0.00 | 0.03 | 0.03 | 39 | 1019.9 |
| 20260831152737 | 26 | 256 | 3.2 | 12.9 | 0.00 | 0.03 | 0.03 | 40 | 1020.0 |
| 20260831151239 | 26 | 248 | 4.8 | 12.9 | 0.00 | 0.03 | 0.03 | 43 | 1020.1 |
| 20260831145735 | 26 | 286 | 6.4 | 12.9 | 0.00 | 0.03 | 0.03 | 43 | 1020.2 |
| 20260831144235 | 26 | 328 | 3.2 | 11.3 | 0.00 | 0.03 | 0.03 | 44 | 1020.3 |
| 20260831142735 | 26 | 286 | 6.4 | 16.1 | 0.00 | 0.03 | 0.03 | 46 | 1020.5 |
| 20260831141231 | 25 | 301 | 6.4 | 12.9 | 0.00 | 0.03 | 0.03 | 48 | 1020.6 |
| 20260831135730 | 25 | 211 | 4.8 | 9.7 | 0.00 | 0.03 | 0.03 | 49 | 1020.7 |
| 20260831134231 | 25 | 202 | 3.2 | 11.3 | 0.00 | 0.03 | 0.03 | 51 | 1020.7 |
| 20260831132730 | 24 | 261 | 3.2 | 9.7 | 0.00 | 0.03 | 0.03 | 51 | 1020.8 |